Salvador Airport, Brazil

2:36 PM -03 en Octubre 22, 2018 (GMT -0300)
DEP. L. E. Magalhaes International

Tiempo Historia de SBSV - Abril, 2018

Change the Weather History Date:

Lunes, Abril 16, 2018

  Actual Average Record
Temperature  
Temperatura media 84 ° F -  
Temperatura máxima 86 ° F 82 ° F 87 ° F (2004)
Temperatura mínima 81 ° F 73 ° F 73 ° F (1999)
Cooling Degree Days 18    
Growing Degree Days 34 (Base 50)    
Moisture  
Punto de rocío 72 ° F    
Average Humidity 66    
Maximum Humidity 74    
Minimum Humidity 55    
Precipitación  
Precipitación 0.00 pul - - ()
Presión al nivel del mar  
Presión al nivel del mar 29.98 pul    
Viento  
Velocidad del viento 7 mph ()    
Velocidad máxima del viento 12 mph    
Max Gust Speed -    
Visibilidad 7.5 Millas    
Eventos      
Averages and records for this station are not official NWS values.
T = Trace of Precipitation, MM = Missing Value Source: Averaged Metar Reports

Daily Weather History Graph

Daily Weather History Graph

Search for Another Location

Airport or City:

Astronomía

Apr. 16, 2018 Salida Puesta
Hora real 5:39 AM -03 5:26 PM -03
Crepúsculo civil 5:17 AM -03 5:48 PM -03
Crepúsculo náutico 4:52 AM -03 6:13 PM -03
Crepúsculo astronómico 4:27 AM -03 6:38 PM -03
Luna 6:01 AM -03 (4/16) 6:10 PM -03 (4/16)
Horas de luz 12h 30m
Horas de luz
11h 47m
Luna nueva, 0% of the Moon is Illuminated
Abr 16
Luna nueva
Abr 22
Cuarto creciente
Abr 29
Luna llena
May 7
Cuarto menguante
May 15
Nueva

Hourly Weather History & Observations

Hora (-03) Temp. Índice de calor Punto de rocío Humedad Presión Visibilidad Wind Dir Velocidad del viento Velocidad de ráfagas Precip Eventos Condiciones
12:00 AM 83 ° F - 73 ° F 64% 30.03 pul 12 mi SE 6.9 mph - -   Parcialmente nublado
12:00 AM 82.4 ° F 88.2 ° F 73.4 ° F 74% 30.01 pul 6.2 mi SE 6.9 mph - N/A   Nubes dispersas
1:00 AM 82.4 ° F 87.2 ° F 71.6 ° F 70% 30.01 pul 6.2 mi ESE 6.9 mph - N/A   Nubes dispersas
2:00 AM 82.4 ° F 88.2 ° F 73.4 ° F 74% 29.98 pul 6.2 mi ESE 8.1 mph - N/A   Nubes dispersas
3:00 AM 82.4 ° F 87.2 ° F 71.6 ° F 70% 29.95 pul 6.2 mi ESE 10.4 mph - N/A   Nubes dispersas
4:00 AM 82.4 ° F 87.2 ° F 71.6 ° F 70% 29.95 pul 6.2 mi ESE 8.1 mph - N/A   Nubes dispersas
5:00 AM 80.6 ° F 84.6 ° F 71.6 ° F 74% 29.95 pul 6.2 mi ESE 5.8 mph - N/A   Nubes dispersas
6:00 AM 82 ° F - 71 ° F 62% 29.98 pul 12 mi ESE 5.8 mph - -   Parcialmente nublado
6:00 AM 82.4 ° F 87.2 ° F 71.6 ° F 70% 29.98 pul 6.2 mi ESE 5.8 mph - N/A   Nubes dispersas
7:00 AM 82.4 ° F 87.2 ° F 71.6 ° F 70% 29.98 pul 6.2 mi SE 8.1 mph - N/A   Nubes dispersas
8:00 AM 84.2 ° F 89.6 ° F 71.6 ° F 66% 30.01 pul 6.2 mi SE 8.1 mph - N/A   Nubes dispersas
9:00 AM 85 ° F - 72 ° F 56% 30.02 pul 12 mi ESE 8.1 mph - -   Parcialmente nublado
9:00 AM 86.0 ° F 91.8 ° F 71.6 ° F 62% 30.01 pul 6.2 mi ESE 8.1 mph - N/A   Nubes dispersas
10:00 AM 86.0 ° F 93.4 ° F 73.4 ° F 66% 30.04 pul 6.2 mi ESE 8.1 mph - N/A   Nubes dispersas
11:00 AM 86.0 ° F 93.4 ° F 73.4 ° F 66% 30.01 pul 6.2 mi SE 11.5 mph - N/A   Nubes dispersas
12:00 PM 86 ° F - 73 ° F 58% 29.99 pul 12 mi SSE 9.2 mph - -   Parcialmente nublado
12:00 PM 86.0 ° F 93.4 ° F 73.4 ° F 66% 29.98 pul 6.2 mi SSE 9.2 mph - N/A   Nubes dispersas
1:00 PM 86.0 ° F 93.4 ° F 73.4 ° F 66% 29.95 pul 6.2 mi SSE 10.4 mph - N/A   Nubes dispersas
2:00 PM 86.0 ° F 91.8 ° F 71.6 ° F 62% 29.95 pul 6.2 mi SE 11.5 mph - N/A   Nubes dispersas
3:00 PM 86 ° F - 72 ° F 55% 29.94 pul 12 mi SE 10.4 mph - -   Parcialmente nublado
3:00 PM 86.0 ° F 91.8 ° F 71.6 ° F 62% 29.92 pul 6.2 mi SE 10.4 mph - N/A   Nubes dispersas
4:00 PM 86.0 ° F 91.8 ° F 71.6 ° F 62% 29.95 pul 6.2 mi SE 10.4 mph - N/A   Nubes dispersas
5:00 PM 84.2 ° F 89.6 ° F 71.6 ° F 66% 29.95 pul 6.2 mi SE 9.2 mph - N/A   Nubes dispersas
6:00 PM 83 ° F - 72 ° F 63% 29.95 pul 12 mi SE 8.1 mph - -   Parcialmente nublado
6:00 PM 84.2 ° F 89.6 ° F 71.6 ° F 66% 29.95 pul 6.2 mi SE 8.1 mph - N/A   Nubes dispersas
7:00 PM 82.4 ° F 88.2 ° F 73.4 ° F 74% 29.95 pul 6.2 mi SSE 8.1 mph - N/A   Nubes dispersas
8:00 PM 82.4 ° F 87.2 ° F 71.6 ° F 70% 29.98 pul 6.2 mi SE 8.1 mph - N/A   Nubes dispersas
9:00 PM 82 ° F - 72 ° F 66% 29.99 pul 12 mi SE 8.1 mph - -   Nubes dispersas
9:00 PM 82.4 ° F 87.2 ° F 71.6 ° F 70% 29.98 pul 6.2 mi SE 8.1 mph - N/A   Parcialmente nublado
10:00 PM 82.4 ° F 87.2 ° F 71.6 ° F 70% 30.01 pul 6.2 mi SE 9.2 mph - N/A   Parcialmente nublado
11:00 PM 82.4 ° F 87.2 ° F 71.6 ° F 70% 30.01 pul 6.2 mi SE 6.9 mph - N/A   Parcialmente nublado